Weather History for Slidell, LA

Change the Weather History Date:

Thursday, April 11, 2013

  Actual Average (KNEW) Record (KNEW)
Temperature  
Mean Temperature 67 °F 68 °F  
Max Temperature 79 °F 77 °F 87 °F (2001)
Min Temperature 54 °F 59 °F 35 °F (1973)
Degree Days  
Heating Degree Days 0 1  
Month to date heating degree days 21  
Since 1 July heating degree days 1266  
Cooling Degree Days 2 4  
Month to date cooling degree days 41  
Year to date cooling degree days 141  
Growing Degree Days 17 (Base 50)    
Moisture  
Dew Point 66 °F    
Average Humidity 92    
Maximum Humidity 100    
Minimum Humidity 77    
Precipitation  
Precipitation 1.15 in 0.15 in 2.59 in (2004)
Month to date precipitation 1.64  
Year to date precipitation 16.64  
Snow  
Snow 0.00 in - - ()
Month to date snowfall  
Since 1 July snowfall  
Snow Depth -    
Sea Level Pressure  
Sea Level Pressure 29.73 in    
Wind  
Wind Speed 12 mph (West)    
Max Wind Speed 24 mph    
Max Gust Speed 36 mph    
Visibility 8 miles    
Events Fog , Rain , Thunderstorm    
T = Trace of Precipitation, MM = Missing Value Source: NWS Daily Summary

Daily Weather History Graph

Daily Weather History Graph

Search for Another Location

Airport:

Trip Planner

Search our weather history database for the weather conditions in past years. The results will help you decide how hot, cold, wet, or windy it might be!

Date:

Astronomy

Apr. 11, 2013 Rise Set
Actual Time 6:36 AM CDT 7:24 PM CDT
Civil Twilight 6:11 AM CDT 7:49 PM CDT
Nautical Twilight 5:43 AM CDT 8:17 PM CDT
Astronomical Twilight 5:13 AM CDT 8:47 PM CDT
Moon 7:13 AM CDT (4/11) 8:51 PM CDT (4/11)
Length of Visible Light 13h 37m
Length of Day
12h 48m
New Moon, 2% of the Moon is Illuminated
Apr 11
New Moon
Apr 18
First Quarter
Apr 25
Full
May 2
Last Quarter
May 9
New

Hourly Weather History & Observations

Time (CDT) Temp. Dew Point Humidity Pressure Visibility Wind Dir Wind Speed Gust Speed Precip Events Conditions
12:38 AM 73.4 °F 71.6 °F 94% 29.83 in 10.0 mi SSE 16.1 mph 21.9 mph N/A   Overcast
12:53 AM 73.9 °F 71.1 °F 91% 29.82 in 10.0 mi SSE 13.8 mph - N/A   Overcast
1:53 AM 73.9 °F 71.1 °F 91% 29.79 in 10.0 mi SSE 11.5 mph 20.7 mph N/A   Overcast
2:53 AM 73.9 °F 72.0 °F 93% 29.77 in 10.0 mi SSE 9.2 mph - N/A   Overcast
3:53 AM 73.9 °F 72.0 °F 93% 29.76 in 10.0 mi SSE 12.7 mph 19.6 mph N/A   Overcast
4:08 AM 73.4 °F 71.6 °F 94% 29.76 in 10.0 mi SSE 11.5 mph - N/A   Overcast
4:17 AM 73.4 °F 71.6 °F 94% 29.76 in 10.0 mi SSE 9.2 mph - N/A   Overcast
4:53 AM 73.9 °F 72.0 °F 93% 29.75 in 10.0 mi SSE 11.5 mph - N/A   Overcast
5:18 AM 73.4 °F 71.6 °F 94% 29.75 in 10.0 mi South 10.4 mph - N/A   Overcast
5:53 AM 73.9 °F 72.0 °F 93% 29.75 in 9.0 mi SSE 10.4 mph - N/A   Overcast
6:53 AM 73.9 °F 72.0 °F 93% 29.75 in 9.0 mi SSE 10.4 mph - 0.00 in   Overcast
7:23 AM 73.4 °F 71.6 °F 94% 29.74 in 7.0 mi SSE 12.7 mph 23.0 mph 0.00 in   Overcast
7:53 AM 73.9 °F 73.0 °F 97% 29.74 in 4.0 mi SSE 13.8 mph 23.0 mph 0.01 in Rain Light Rain
8:37 AM 75.2 °F 73.4 °F 94% 29.75 in 5.0 mi SSE 13.8 mph 23.0 mph 0.03 in Rain Light Rain
8:53 AM 75.0 °F 73.0 °F 94% 29.74 in 7.0 mi SSE 17.3 mph 26.5 mph 0.03 in   Overcast
9:19 AM 75.2 °F 73.4 °F 94% 29.74 in 8.0 mi SSE 15.0 mph 23.0 mph 0.00 in   Overcast
9:30 AM 75.2 °F 73.4 °F 94% 29.74 in 8.0 mi SSE 20.7 mph 27.6 mph 0.00 in   Overcast
10:53 AM 79.0 °F 73.9 °F 84% 29.73 in 10.0 mi SSE 19.6 mph 27.6 mph N/A   Overcast
12:38 PM 77.0 °F 71.6 °F 83% 29.65 in 10.0 mi SSE 20.7 mph 35.7 mph 0.00 in Thunderstorm Overcast
12:53 PM 75.9 °F 73.0 °F 91% 29.61 in 9.0 mi SSE 24.2 mph 35.7 mph 0.00 in Rain , Thunderstorm Light Rain
1:14 PM 73.4 °F 71.6 °F 94% 29.67 in 1.5 mi West 13.8 mph 28.8 mph 0.26 in Rain , Thunderstorm Thunderstorms and Rain
1:17 PM 71.6 °F 69.8 °F 94% 29.68 in 0.8 mi WSW 9.2 mph 27.6 mph 0.45 in Rain , Thunderstorm Heavy Thunderstorms and Rain
1:26 PM 69.8 °F 69.8 °F 100% 29.68 in 0.2 mi West 6.9 mph 16.1 mph 0.80 in Fog , Rain , Thunderstorm Heavy Thunderstorms and Rain
1:39 PM 66.2 °F 66.2 °F 100% 29.69 in 0.8 mi NW 12.7 mph 20.7 mph 1.05 in Rain , Thunderstorm Thunderstorms and Rain
1:44 PM 66.2 °F 66.2 °F 100% 29.69 in 2.5 mi NW 11.5 mph 21.9 mph 1.06 in Rain , Thunderstorm Thunderstorms and Rain
1:51 PM 66.2 °F 64.4 °F 94% 29.69 in 10.0 mi NW 11.5 mph 21.9 mph 1.06 in Rain , Thunderstorm Light Thunderstorms and Rain
1:53 PM 64.9 °F 64.0 °F 97% 29.70 in 10.0 mi NNW 10.4 mph 21.9 mph 1.06 in Rain , Thunderstorm Light Thunderstorms and Rain
2:04 PM 64.4 °F 62.6 °F 94% 29.70 in 10.0 mi NNW 8.1 mph 17.3 mph 0.00 in Rain Light Rain
2:18 PM 62.6 °F 60.8 °F 94% 29.72 in 10.0 mi NW 10.4 mph 21.9 mph 0.00 in Rain Light Rain
2:27 PM 60.8 °F 59.0 °F 94% 29.71 in 6.0 mi NNW 11.5 mph 20.7 mph 0.01 in Rain Light Rain
2:48 PM 60.8 °F 60.8 °F 100% 29.71 in 3.0 mi North 13.8 mph 18.4 mph 0.05 in Rain , Thunderstorm Rain
2:53 PM 61.0 °F 59.0 °F 93% 29.70 in 5.0 mi North 9.2 mph 20.7 mph 0.05 in Rain , Thunderstorm Light Rain
3:05 PM 60.8 °F 59.0 °F 94% 29.69 in 10.0 mi North 13.8 mph - 0.00 in Rain Light Rain
3:14 PM 62.6 °F 60.8 °F 94% 29.68 in 10.0 mi North 11.5 mph 19.6 mph 0.00 in   Overcast
3:53 PM 62.1 °F 59.0 °F 90% 29.65 in 10.0 mi NE 6.9 mph - 0.00 in   Overcast
4:31 PM 62.6 °F 59.0 °F 88% 29.67 in 10.0 mi NNE 6.9 mph - N/A Thunderstorm Mostly Cloudy
4:53 PM 62.1 °F 60.1 °F 93% 29.70 in 10.0 mi NW 5.8 mph - 0.00 in   Partly Cloudy
5:12 PM 62.6 °F 60.8 °F 94% 29.70 in 10.0 mi NW 9.2 mph - N/A   Mostly Cloudy
5:37 PM 64.4 °F 60.8 °F 88% 29.68 in 10.0 mi NNW 9.2 mph 18.4 mph N/A   Mostly Cloudy
5:53 PM 64.9 °F 61.0 °F 87% 29.69 in 10.0 mi NNW 6.9 mph - N/A   Scattered Clouds
6:53 PM 64.9 °F 60.1 °F 84% 29.70 in 10.0 mi NNW 3.5 mph - N/A   Clear
7:36 PM 64.4 °F 57.2 °F 77% 29.73 in 10.0 mi NNW 10.4 mph 19.6 mph N/A   Mostly Cloudy
7:53 PM 63.0 °F 57.0 °F 81% 29.74 in 10.0 mi NNW 9.2 mph 17.3 mph N/A   Overcast
8:10 PM 60.8 °F 57.2 °F 88% 29.75 in 10.0 mi NNW 6.9 mph - N/A   Scattered Clouds
8:53 PM 59.0 °F 55.9 °F 90% 29.77 in 10.0 mi NNW 3.5 mph - N/A   Clear
9:53 PM 57.0 °F 54.0 °F 89% 29.79 in 10.0 mi Calm Calm - N/A   Clear
10:53 PM 55.9 °F 54.0 °F 93% 29.83 in 10.0 mi NW 4.6 mph - N/A   Clear
11:53 PM 54.0 °F 52.0 °F 93% 29.85 in 10.0 mi NW 3.5 mph - N/A   Clear